Time,TemperatureF,DewpointF,PressureIn,WindDirection,WindDirectionDegrees,WindSpeedMPH,WindSpeedGustMPH,Humidity,HourlyPrecipIn,Conditions,Clouds,dailyrainin,SoftwareType,DateUTC
2013-01-31 15:09:00,52.8,29.1,29.87,North,0,5.8,5.8,40,0.00,,,0.00,WUHU216HW,2013-01-31 20:09:00,
2013-01-31 15:14:00,52.8,28.5,29.87,North,0,6.2,6.9,39,0.00,,,0.00,WUHU216HW,2013-01-31 20:14:00,
2013-01-31 15:19:00,52.7,29.0,29.87,North,0,0.0,7.1,40,0.00,,,0.00,WUHU216HW,2013-01-31 20:19:00,
2013-01-31 15:24:00,52.7,29.0,29.88,North,0,0.0,7.1,40,0.00,,,0.00,WUHU216HW,2013-01-31 20:24:00,
2013-01-31 15:29:00,52.7,29.5,29.88,NNW,338,1.5,6.0,41,0.00,,,0.00,WUHU216HW,2013-01-31 20:29:00,
2013-01-31 15:34:00,52.5,28.8,29.88,NNW,338,3.3,7.8,40,0.00,,,0.00,WUHU216HW,2013-01-31 20:34:00,
2013-01-31 15:39:00,52.3,28.8,29.88,SSW,203,2.0,7.8,40,0.00,,,0.00,WUHU216HW,2013-01-31 20:39:00,
2013-01-31 15:44:00,52.3,29.2,29.89,North,0,7.8,7.8,41,0.00,,,0.00,WUHU216HW,2013-01-31 20:44:00,
2013-01-31 15:49:00,52.1,29.1,29.89,North,0,5.1,7.8,41,0.00,,,0.00,WUHU216HW,2013-01-31 20:49:00,
2013-01-31 15:54:00,51.9,28.9,29.89,NW,315,0.0,5.1,41,0.00,,,0.00,WUHU216HW,2013-01-31 20:54:00,
2013-01-31 15:59:00,51.8,28.2,29.90,NW,315,0.0,4.4,40,0.00,,,0.00,WUHU216HW,2013-01-31 20:59:00,
2013-01-31 16:04:00,51.6,28.6,29.90,WNW,293,0.0,4.4,41,0.00,,,0.00,WUHU216HW,2013-01-31 21:04:00,
2013-01-31 16:09:00,51.4,28.4,29.90,NNW,338,1.5,5.3,41,0.00,,,0.00,WUHU216HW,2013-01-31 21:09:00,
2013-01-31 16:14:00,51.2,28.2,29.90,North,0,3.1,5.3,41,0.00,,,0.00,WUHU216HW,2013-01-31 21:14:00,
2013-01-31 16:19:00,50.9,27.9,29.91,WSW,248,9.8,9.8,41,0.00,,,0.00,WUHU216HW,2013-01-31 21:19:00,
2013-01-31 16:24:00,50.5,27.8,29.91,WSW,248,1.5,9.8,41,0.00,,,0.00,WUHU216HW,2013-01-31 21:24:00,
2013-01-31 16:29:00,50.5,27.4,29.91,WNW,293,2.4,7.3,41,0.00,,,0.00,WUHU216HW,2013-01-31 21:29:00,
2013-01-31 16:34:00,50.3,27.4,29.91,NNE,23,1.5,8.7,41,0.00,,,0.00,WUHU216HW,2013-01-31 21:34:00,
2013-01-31 16:39:00,50.1,27.8,29.92,NW,315,0.0,8.7,42,0.00,,,0.00,WUHU216HW,2013-01-31 21:39:00,
2013-01-31 16:44:00,49.8,26.9,29.92,NNE,23,3.3,6.2,41,0.00,,,0.00,WUHU216HW,2013-01-31 21:44:00,
2013-01-31 16:49:00,49.8,26.9,29.92,NW,315,2.2,6.2,41,0.00,,,0.00,WUHU216HW,2013-01-31 21:49:00,
2013-01-31 16:54:00,49.6,27.3,29.92,NNW,338,1.5,3.5,42,0.00,,,0.00,WUHU216HW,2013-01-31 21:54:00,
2013-01-31 16:59:00,49.2,27.0,29.93,NW,315,2.9,5.3,42,0.00,,,0.00,WUHU216HW,2013-01-31 21:59:00,
2013-01-31 17:04:00,49.1,27.4,29.92,NNE,23,5.5,5.5,43,0.00,,,0.00,WUHU216HW,2013-01-31 22:04:00,
2013-01-31 17:09:00,48.9,27.2,29.92,NNW,338,3.1,5.5,43,0.00,,,0.00,WUHU216HW,2013-01-31 22:09:00,
2013-01-31 17:14:00,48.7,26.5,29.93,NNE,23,0.0,5.3,42,0.00,,,0.00,WUHU216HW,2013-01-31 22:14:00,
2013-01-31 17:19:00,48.3,26.7,29.93,West,270,5.1,5.1,43,0.00,,,0.00,WUHU216HW,2013-01-31 22:19:00,
2013-01-31 17:24:00,48.0,26.4,29.93,NE,45,0.0,5.1,43,0.00,,,0.00,WUHU216HW,2013-01-31 22:24:00,
2013-01-31 17:29:00,48.0,26.4,29.93,North,0,0.0,5.5,43,0.00,,,0.00,WUHU216HW,2013-01-31 22:29:00,
2013-01-31 17:34:00,47.8,26.2,29.93,NW,315,0.0,5.5,43,0.00,,,0.00,WUHU216HW,2013-01-31 22:34:00,
2013-01-31 17:39:00,47.4,25.9,29.93,NNW,338,0.0,3.1,43,0.00,,,0.00,WUHU216HW,2013-01-31 22:39:00,
2013-01-31 17:44:00,47.3,26.4,29.93,NNW,338,0.0,3.1,44,0.00,,,0.00,WUHU216HW,2013-01-31 22:44:00,
2013-01-31 17:49:00,47.1,26.1,29.93,WNW,293,0.0,0.0,44,0.00,,,0.00,WUHU216HW,2013-01-31 22:49:00,
2013-01-31 17:54:00,46.5,26.2,29.94,North,0,0.0,0.0,45,0.00,,,0.00,WUHU216HW,2013-01-31 22:54:00,
2013-01-31 17:59:00,46.2,25.8,29.94,West,270,0.0,0.0,45,0.00,,,0.00,WUHU216HW,2013-01-31 22:59:00,
2013-01-31 18:04:00,46.0,25.7,29.94,NW,315,0.0,0.0,45,0.00,,,0.00,WUHU216HW,2013-01-31 23:04:00,
2013-01-31 18:09:00,45.6,25.9,29.94,SW,225,0.0,1.7,46,0.00,,,0.00,WUHU216HW,2013-01-31 23:09:00,
2013-01-31 18:14:00,45.5,25.7,29.95,SW,225,0.0,1.7,46,0.00,,,0.00,WUHU216HW,2013-01-31 23:14:00,
2013-01-31 18:19:00,45.1,26.0,29.95,SSW,203,0.0,0.0,47,0.00,,,0.00,WUHU216HW,2013-01-31 23:19:00,
2013-01-31 18:24:00,44.9,26.2,29.95,SW,225,0.0,0.0,47,0.00,,,0.00,WUHU216HW,2013-01-31 23:24:00,
2013-01-31 18:29:00,44.4,25.8,29.95,SW,225,0.0,0.0,48,0.00,,,0.00,WUHU216HW,2013-01-31 23:29:00,
2013-01-31 18:34:00,44.2,25.7,29.95,SW,225,0.0,0.0,48,0.00,,,0.00,WUHU216HW,2013-01-31 23:34:00,
2013-01-31 18:39:00,43.8,25.9,29.95,SW,225,0.0,0.0,49,0.00,,,0.00,WUHU216HW,2013-01-31 23:39:00,
2013-01-31 18:44:00,43.7,26.3,29.95,SW,225,0.0,0.0,50,0.00,,,0.00,WUHU216HW,2013-01-31 23:44:00,
2013-01-31 18:49:00,43.3,26.0,29.96,SW,225,0.0,0.0,50,0.00,,,0.00,WUHU216HW,2013-01-31 23:49:00,
2013-01-31 18:54:00,42.9,26.1,29.96,SW,225,0.0,0.0,51,0.00,,,0.00,WUHU216HW,2013-01-31 23:54:00,
2013-01-31 18:59:00,42.4,26.4,29.97,SW,225,0.0,0.0,53,0.00,,,0.00,WUHU216HW,2013-01-31 23:59:00,
2013-01-31 19:04:00,42.0,26.5,29.97,SW,225,0.0,0.0,54,0.00,,,0.00,WUHU216HW,2013-02-01 00:04:00,
2013-01-31 19:09:00,41.7,26.6,29.97,SW,225,0.0,0.0,55,0.00,,,0.00,WUHU216HW,2013-02-01 00:09:00,
2013-01-31 19:14:00,41.5,26.4,29.97,SW,225,0.0,0.0,55,0.00,,,0.00,WUHU216HW,2013-02-01 00:14:00,
2013-01-31 19:19:00,41.3,26.3,29.98,SW,225,0.0,0.0,55,0.00,,,0.00,WUHU216HW,2013-02-01 00:19:00,
2013-01-31 19:24:00,41.0,25.9,29.98,SW,225,0.0,0.0,55,0.00,,,0.00,WUHU216HW,2013-02-01 00:24:00,
2013-01-31 19:29:00,40.6,26.0,29.98,SW,225,0.0,0.0,56,0.00,,,0.00,WUHU216HW,2013-02-01 00:29:00,
2013-01-31 19:34:00,40.2,26.1,29.98,SW,225,0.0,0.0,57,0.00,,,0.00,WUHU216HW,2013-02-01 00:34:00,
2013-01-31 19:39:00,39.9,26.2,29.98,SW,225,0.0,0.0,58,0.00,,,0.00,WUHU216HW,2013-02-01 00:39:00,
2013-01-31 19:44:00,39.7,26.0,29.98,SW,225,3.5,3.5,58,0.00,,,0.00,WUHU216HW,2013-02-01 00:44:00,
2013-01-31 19:49:00,39.5,25.8,29.98,SW,225,0.0,3.5,58,0.00,,,0.00,WUHU216HW,2013-02-01 00:49:00,
2013-01-31 19:54:00,39.3,25.7,29.98,SW,225,0.0,0.0,58,0.00,,,0.00,WUHU216HW,2013-02-01 00:54:00,
2013-01-31 19:59:00,39.2,25.9,29.98,SW,225,0.0,0.0,59,0.00,,,0.00,WUHU216HW,2013-02-01 00:59:00,
2013-01-31 20:04:00,38.8,25.6,29.98,SW,225,0.0,0.0,59,0.00,,,0.00,WUHU216HW,2013-02-01 01:04:00,
2013-01-31 20:09:00,38.4,25.7,29.99,SW,225,0.0,0.0,60,0.00,,,0.00,WUHU216HW,2013-02-01 01:09:00,
2013-01-31 20:14:00,38.3,25.6,29.99,SW,225,0.0,0.0,60,0.00,,,0.00,WUHU216HW,2013-02-01 01:14:00,
2013-01-31 20:19:00,37.9,25.6,29.99,SW,225,0.0,0.0,61,0.00,,,0.00,WUHU216HW,2013-02-01 01:19:00,
2013-01-31 20:24:00,37.7,25.8,30.00,SW,225,0.0,0.0,62,0.00,,,0.00,WUHU216HW,2013-02-01 01:24:00,
2013-01-31 20:29:00,37.5,25.7,30.00,SW,225,0.0,0.0,62,0.00,,,0.00,WUHU216HW,2013-02-01 01:29:00,
2013-01-31 20:34:00,37.0,25.7,30.00,SW,225,0.0,0.0,63,0.00,,,0.00,WUHU216HW,2013-02-01 01:34:00,
2013-01-31 20:39:00,36.6,25.2,30.00,SW,225,0.0,0.0,63,0.00,,,0.00,WUHU216HW,2013-02-01 01:39:00,
2013-01-31 20:44:00,36.5,25.4,30.00,SW,225,0.0,0.0,64,0.00,,,0.00,WUHU216HW,2013-02-01 01:44:00,
2013-01-31 20:49:00,36.3,25.2,30.00,SW,225,0.0,0.0,64,0.00,,,0.00,WUHU216HW,2013-02-01 01:49:00,
2013-01-31 20:54:00,36.3,25.6,30.00,SW,225,0.0,0.0,65,0.00,,,0.00,WUHU216HW,2013-02-01 01:54:00,
2013-01-31 20:59:00,36.1,25.4,30.00,WSW,248,0.0,0.0,64,0.00,,,0.00,WUHU216HW,2013-02-01 01:59:00,
2013-01-31 21:04:00,35.7,25.1,30.01,WSW,248,0.0,0.0,65,0.00,,,0.00,WUHU216HW,2013-02-01 02:04:00,
2013-01-31 21:09:00,35.6,24.9,30.01,WSW,248,0.0,0.0,65,0.00,,,0.00,WUHU216HW,2013-02-01 02:09:00,
2013-01-31 21:14:00,35.4,25.1,30.01,WSW,248,0.0,0.0,66,0.00,,,0.00,WUHU216HW,2013-02-01 02:14:00,
2013-01-31 21:19:00,35.4,25.1,30.01,WSW,248,0.0,0.0,66,0.00,,,0.00,WUHU216HW,2013-02-01 02:19:00,
2013-01-31 21:24:00,35.4,25.1,30.01,WSW,248,0.0,0.0,66,0.00,,,0.00,WUHU216HW,2013-02-01 02:24:00,
2013-01-31 21:29:00,35.2,25.3,30.01,WSW,248,0.0,0.0,67,0.00,,,0.00,WUHU216HW,2013-02-01 02:29:00,
2013-01-31 21:34:00,35.2,25.3,30.01,WSW,248,0.0,0.0,67,0.00,,,0.00,WUHU216HW,2013-02-01 02:34:00,
2013-01-31 21:39:00,35.2,25.3,30.01,WSW,248,0.0,0.0,67,0.00,,,0.00,WUHU216HW,2013-02-01 02:39:00,
2013-01-31 21:44:00,35.4,25.8,30.01,WSW,248,0.0,0.0,68,0.00,,,0.00,WUHU216HW,2013-02-01 02:44:00,
2013-01-31 21:49:00,35.4,25.8,30.01,SW,225,0.0,0.0,68,0.00,,,0.00,WUHU216HW,2013-02-01 02:49:00,
2013-01-31 21:54:00,35.4,25.8,30.01,South,180,0.0,1.7,68,0.00,,,0.00,WUHU216HW,2013-02-01 02:54:00,
2013-01-31 21:59:00,35.7,25.8,30.01,South,180,3.1,3.1,67,0.00,,,0.00,WUHU216HW,2013-02-01 02:59:00,
2013-01-31 22:04:00,36.1,26.2,30.00,SSE,158,0.0,3.1,67,0.00,,,0.00,WUHU216HW,2013-02-01 03:04:00,
2013-01-31 22:09:00,36.5,26.5,30.00,South,180,0.0,2.0,67,0.00,,,0.00,WUHU216HW,2013-02-01 03:09:00,
2013-01-31 22:14:00,37.2,27.0,30.00,SSW,203,0.0,0.0,67,0.00,,,0.00,WUHU216HW,2013-02-01 03:14:00,
2013-01-31 22:19:00,37.4,27.0,30.00,SSW,203,0.0,0.0,66,0.00,,,0.00,WUHU216HW,2013-02-01 03:19:00,
2013-01-31 22:24:00,37.7,27.3,30.00,South,180,0.0,0.0,66,0.00,,,0.00,WUHU216HW,2013-02-01 03:24:00,
2013-01-31 22:29:00,37.9,27.1,30.00,South,180,0.0,0.0,65,0.00,,,0.00,WUHU216HW,2013-02-01 03:29:00,
2013-01-31 22:34:00,38.1,27.3,30.01,SSW,203,0.0,0.8,65,0.00,,,0.00,WUHU216HW,2013-02-01 03:34:00,
2013-01-31 22:39:00,38.3,27.5,30.01,South,180,0.0,2.0,65,0.00,,,0.00,WUHU216HW,2013-02-01 03:39:00,